Montrose, CO

5:21 AM MDT on June 26, 2017 (GMT -0600)
Montrose Regional

Weather History for KMTJ - August, 2012

Change the Weather History Date:

Friday, August 10, 2012

  Actual Average Record
Temperature  
Mean Temperature 75 °F 72 °F  
Max Temperature 91 °F 87 °F 95 °F (2003)
Min Temperature 59 °F 57 °F 50 °F (2002)
Degree Days  
Heating Degree Days 0 0  
Month to date heating degree days 0 0  
Since 1 June heating degree days 6 39  
Since 1 July heating degree days 0 0  
Cooling Degree Days 10 7  
Month to date cooling degree days 99 76  
Year to date cooling degree days 701 498  
Since 1 June cooling degree days 678 481  
Growing Degree Days 26 (Base 50)    
Moisture  
Dew Point 47 °F    
Average Humidity 42    
Maximum Humidity 64    
Minimum Humidity 19    
Precipitation  
Precipitation 0.00 in 0.05 in 0.34 in (1997)
Month to date precipitation 0.02 0.41  
Year to date precipitation 3.33 6.48  
Sea Level Pressure  
Sea Level Pressure 30.04 in    
Wind  
Wind Speed 8 mph (SSE)    
Max Wind Speed 32 mph    
Max Gust Speed 39 mph    
Visibility 10 miles    
Events Thunderstorm    
T = Trace of Precipitation, MM = Missing Value Source: NWS Daily Summary

Daily Weather History Graph

Daily Weather History Graph

Search for Another Location

Airport or City:

Trip Planner

Search our weather history database for the weather conditions in past years. The results will help you decide how hot, cold, wet, or windy it might be!

Date:

Astronomy

Aug. 10, 2012 Rise Set
Actual Time 6:21 AM MDT 8:11 PM MDT
Civil Twilight 5:53 AM MDT 8:39 PM MDT
Nautical Twilight 5:18 AM MDT 9:14 PM MDT
Astronomical Twilight 4:41 AM MDT 9:51 PM MDT
Moon 12:13 AM MDT (8/10) 2:53 PM MDT (8/10)
Length of Visible Light 14h 46m
Length of Day
13h 49m
Last Quarter, 41% of the Moon is Illuminated
Aug 10
Last Quarter
Aug 17
New
Aug 24
First Quarter
Aug 31
Full
Sep 8
Last Quarter

Hourly Weather History & Observations

Time (MDT) Temp. Dew Point Humidity Pressure Visibility Wind Dir Wind Speed Gust Speed Precip Events Conditions
12:53 AM 63.0 °F 48.0 °F 58% 30.05 in 10.0 mi SE 8.1 mph - N/A   Clear
1:53 AM 62.1 °F 48.0 °F 60% 30.04 in 10.0 mi SE 8.1 mph - N/A   Clear
2:53 AM 63.0 °F 48.0 °F 58% 30.04 in 10.0 mi SE 9.2 mph - N/A   Clear
3:53 AM 62.1 °F 46.0 °F 56% 30.05 in 10.0 mi SSE 3.5 mph - N/A   Clear
4:53 AM 60.1 °F 46.9 °F 62% 30.06 in 10.0 mi SSE 3.5 mph - N/A   Clear
5:53 AM 60.1 °F 46.9 °F 62% 30.06 in 10.0 mi Calm Calm - N/A   Clear
6:53 AM 61.0 °F 48.0 °F 62% 30.08 in 10.0 mi SSE 8.1 mph - N/A   Clear
8:53 AM 66.9 °F 48.0 °F 51% 30.09 in 10.0 mi SE 4.6 mph - N/A   Clear
9:53 AM 69.1 °F 51.1 °F 53% 30.07 in 10.0 mi SSW 3.5 mph - N/A   Clear
10:53 AM 73.0 °F 50.0 °F 44% 30.07 in 10.0 mi SSW 3.5 mph - N/A   Partly Cloudy
11:53 AM 79.0 °F 46.9 °F 32% 30.04 in 10.0 mi Calm Calm - N/A   Clear
12:53 PM 84.9 °F 43.0 °F 23% 30.00 in 10.0 mi Variable 4.6 mph - N/A   Clear
1:53 PM 90.0 °F 45.0 °F 21% 29.95 in 10.0 mi NW 8.1 mph - N/A   Clear
2:53 PM 90.0 °F 42.1 °F 19% 29.92 in 10.0 mi SSW 5.8 mph - N/A   Clear
3:30 PM 91.4 °F 41.0 °F 17% 30.18 in 10.0 mi Calm Calm - N/A Thunderstorm Clear
3:45 PM 91.4 °F 44.6 °F 20% 30.18 in 10.0 mi SSE 19.6 mph 29.9 mph N/A   Clear
3:53 PM 90.0 °F 46.9 °F 23% 29.91 in 9.0 mi SSE 31.1 mph 35.7 mph N/A   Partly Cloudy
4:03 PM 89.6 °F 48.2 °F 24% 30.18 in 10.0 mi SSE 21.9 mph 39.1 mph N/A   Partly Cloudy
4:53 PM 89.1 °F 46.0 °F 22% 29.90 in 10.0 mi SSE 19.6 mph 27.6 mph N/A   Clear
5:27 PM 86.0 °F 44.6 °F 23% 30.15 in 10.0 mi SE 19.6 mph - N/A Thunderstorm Clear
5:42 PM 89.6 °F 44.6 °F 21% 30.14 in 10.0 mi SE 16.1 mph 24.2 mph N/A   Partly Cloudy
5:53 PM 89.1 °F 45.0 °F 22% 29.88 in 10.0 mi SE 19.6 mph - N/A   Scattered Clouds
6:53 PM 87.1 °F 45.0 °F 23% 29.88 in 10.0 mi SW 4.6 mph - N/A   Clear
7:50 PM 82.4 °F 44.6 °F 26% 30.15 in 10.0 mi NW 9.2 mph - N/A Thunderstorm Clear
7:53 PM 82.9 °F 44.1 °F 25% 29.90 in 10.0 mi NNW 8.1 mph - N/A Thunderstorm Partly Cloudy
8:05 PM 78.8 °F 48.2 °F 34% 30.16 in 10.0 mi North 11.5 mph - N/A   Scattered Clouds
8:53 PM 75.9 °F 50.0 °F 40% 29.97 in 10.0 mi North 11.5 mph - N/A   Scattered Clouds
9:53 PM 73.9 °F 48.9 °F 41% 29.99 in 10.0 mi North 6.9 mph - N/A   Partly Cloudy
10:53 PM 71.1 °F 51.1 °F 49% 29.99 in 10.0 mi SSW 6.9 mph - N/A   Clear
11:53 PM 69.1 °F 52.0 °F 54% 29.97 in 10.0 mi East 8.1 mph - N/A   Clear